Погода в Греймуте

Новая Зеландия     42°27′44″S   171°11′48″E
темп.,
°C
ветер,
м/с
пор.,
м/с
влажн.,
%
обл.,
%
осадки,
мм/ч
давл.,
гПа
погр.,
м
29 июля, чт
чт2900:00+8в229520 0.1 101641
03:00+6в229615 0.0 101651
06:00+6в229615 0.0 101651
09:00+6в2392100 0.0 101695
12:00+12в227099 0.0 1016399
15:00+13с1269100 0.0 1014569
18:00+9вюв1190100 0.0 101430
21:00+8в229144 0.0 101550
30 июля, пт
пт3000:00+7вюв349175 0.0 101473
03:00+7вюв348919 0.0 101492
06:00+6в349087 0.0 101387
09:00+7в358474 0.0 1014125
12:00+12в246891 0.0 1012222
15:00+15вюв126089 0.0 1010543
18:00+12всв0179100 0.0 101016
21:00+11вюв2283100 0.0 101151
31 июля, сб
сб3100:00+11вюв2482100 0.0 101189
03:00+10вюв2482100 0.0 101094
06:00+10в2583100 0.0 1009126
09:00+9вюв2385100 0.0 101073
12:00+14вюв1265100 0.0 1010276
15:00+15юз2366100 0.0 1008469
18:00+11ю1184100 0.0 100921
21:00+10в2187100 0.0 101030
1 августа, вс
вс100:00+9в2192100 0.0 101132
03:00+9вюв2291100 0.0 101146
06:00+9в2287100 0.0 101259
09:00+10всв1182100 0.1 101346
12:00+9в2395100 2.1 1012114
15:00+10в2595100 1.2 1011176
18:00+9всв1295100 1.7 101170
21:00+9всв1296100 1.1 101186
2 августа, пн
пн200:00+9всв129577 1.5 101178
03:00+9ююв019499 0.1 101071
06:00+8в1196100 0.3 100850
09:00+7в2395100 0.0 1007105
12:00+11ссв1380100 0.0 1005558
15:00+9всв3688100 2.5 1000702
18:00+7св3893100 4.8 996527
21:00+9сз7128192 5.0 9961104